When you browse on this site, cookies collect data to enhance your experience and personalize the content and advertising you see.
Visit our Privacy Policy to learn more. By continuing to use the site, you agree to this use of cookies and data.
EN

Hourly Weather Manchester

Today, 13 July, Monday

Time Temperature Precipitation Wind Pressure Humidity
00:00 +14°C° 0 mm 2 mps 763 mmHg 72%
01:00 +14°C° 0 mm 2 mps 763 mmHg 72%
02:00 +14°C° 0 mm 2 mps 762 mmHg 71%
03:00 +14°C° 0 mm 2 mps 762 mmHg 71%
04:00 +14°C° 0.1 mm 2 mps 762 mmHg 75%
05:00 +14°C° 0.1 mm 2 mps 761 mmHg 80%
06:00 +13°C° 0.1 mm 3 mps 761 mmHg 84%
07:00 +14°C° 0.1 mm 3 mps 761 mmHg 84%
08:00 +14°C° 0.1 mm 3 mps 761 mmHg 84%
09:00 +15°C° 0.1 mm 4 mps 761 mmHg 84%
10:00 +17°C° 0 mm 4 mps 760 mmHg 83%
11:00 +18°C° 0 mm 4 mps 760 mmHg 81%
12:00 +19°C° 0 mm 4 mps 760 mmHg 79%
13:00 +19°C° 0.2 mm 4 mps 759 mmHg 79%
14:00 +19°C° 0.2 mm 5 mps 759 mmHg 78%
15:00 +19°C° 0.2 mm 5 mps 758 mmHg 77%
16:00 +19°C° 0.3 mm 5 mps 758 mmHg 79%
17:00 +19°C° 0.3 mm 5 mps 758 mmHg 80%
18:00 +18°C° 0.3 mm 4 mps 758 mmHg 81%
19:00 +17°C° 0.1 mm 4 mps 758 mmHg 83%
20:00 +16°C° 0.1 mm 3 mps 758 mmHg 86%
21:00 +14°C° 0.1 mm 3 mps 758 mmHg 88%
22:00 +14°C° 0 mm 3 mps 758 mmHg 87%
23:00 +13°C° 0 mm 3 mps 758 mmHg 86%

Tomorrow, 14 July, Tuesday

Time Temperature Precipitation Wind Pressure Humidity
00:00 +13°C° 0 mm 3 mps 758 mmHg 85%
01:00 +13°C° 0 mm 3 mps 758 mmHg 83%
02:00 +12°C° 0 mm 3 mps 758 mmHg 82%
03:00 +12°C° 0 mm 3 mps 757 mmHg 80%
04:00 +12°C° 0 mm 3 mps 757 mmHg 80%
05:00 +12°C° 0 mm 3 mps 758 mmHg 80%
06:00 +12°C° 0 mm 3 mps 758 mmHg 80%
07:00 +13°C° 0 mm 4 mps 758 mmHg 77%
08:00 +14°C° 0 mm 5 mps 758 mmHg 73%
09:00 +15°C° 0 mm 5 mps 758 mmHg 70%
10:00 +15°C° 0.1 mm 5 mps 758 mmHg 69%
11:00 +16°C° 0.1 mm 5 mps 758 mmHg 69%
12:00 +16°C° 0.1 mm 6 mps 757 mmHg 68%
13:00 +16°C° 0.1 mm 6 mps 757 mmHg 67%
14:00 +16°C° 0.1 mm 6 mps 757 mmHg 66%
15:00 +17°C° 0.1 mm 6 mps 757 mmHg 65%
16:00 +16°C° 0 mm 6 mps 757 mmHg 69%
17:00 +15°C° 0 mm 6 mps 757 mmHg 73%
18:00 +14°C° 0 mm 5 mps 756 mmHg 77%
19:00 +14°C° 0 mm 5 mps 757 mmHg 80%
20:00 +14°C° 0 mm 4 mps 757 mmHg 84%
21:00 +13°C° 0 mm 4 mps 757 mmHg 87%
22:00 +13°C° 0 mm 4 mps 757 mmHg 88%
23:00 +13°C° 0 mm 3 mps 757 mmHg 89%

Day after tomorrow, 15 July, Wednesday

Time Temperature Precipitation Wind Pressure Humidity
00:00 +13°C° 0 mm 3 mps 757 mmHg 90%
01:00 +13°C° 0 mm 3 mps 756 mmHg 90%
02:00 +13°C° 0 mm 3 mps 756 mmHg 91%
03:00 +14°C° 0 mm 2 mps 756 mmHg 91%
04:00 +14°C° 0 mm 2 mps 756 mmHg 91%
05:00 +14°C° 0 mm 2 mps 756 mmHg 92%
06:00 +14°C° 0 mm 2 mps 756 mmHg 92%
07:00 +14°C° 0 mm 2 mps 756 mmHg 91%
08:00 +13°C° 0 mm 3 mps 757 mmHg 91%
09:00 +14°C° 0 mm 3 mps 757 mmHg 90%
10:00 +14°C° 0 mm 3 mps 757 mmHg 90%
11:00 +14°C° 0 mm 3 mps 757 mmHg 90%
12:00 +14°C° 0 mm 3 mps 757 mmHg 90%
13:00 +14°C° 0 mm 4 mps 757 mmHg 90%
14:00 +14°C° 0 mm 4 mps 757 mmHg 90%
15:00 +14°C° 0 mm 4 mps 757 mmHg 90%
16:00 +14°C° 0 mm 4 mps 757 mmHg 90%
17:00 +14°C° 0 mm 4 mps 758 mmHg 89%
18:00 +14°C° 0 mm 4 mps 758 mmHg 89%
19:00 +14°C° 0 mm 4 mps 758 mmHg 90%
20:00 +14°C° 0 mm 4 mps 758 mmHg 91%
21:00 +14°C° 0 mm 4 mps 758 mmHg 92%
22:00 +14°C° 0 mm 4 mps 759 mmHg 91%
23:00 +14°C° 0 mm 4 mps 759 mmHg 91%

16 July, Thursday

Time Temperature Precipitation Wind Pressure Humidity
00:00 +14°C° 0 mm 4 mps 759 mmHg 91%
01:00 +14°C° 0 mm 4 mps 759 mmHg 91%
02:00 +13°C° 0 mm 4 mps 759 mmHg 91%
03:00 +13°C° 0 mm 4 mps 759 mmHg 92%
04:00 +13°C° 0 mm 4 mps 759 mmHg 90%
05:00 +14°C° 0 mm 4 mps 759 mmHg 89%
06:00 +14°C° 0 mm 4 mps 759 mmHg 88%
07:00 +15°C° 0 mm 4 mps 759 mmHg 85%
08:00 +17°C° 0 mm 4 mps 760 mmHg 81%
09:00 +17°C° 0 mm 5 mps 760 mmHg 77%
10:00 +17°C° 0 mm 5 mps 760 mmHg 76%
11:00 +19°C° 0 mm 5 mps 760 mmHg 76%
12:00 +19°C° 0 mm 5 mps 760 mmHg 75%
13:00 +20°C° 0 mm 5 mps 760 mmHg 75%
14:00 +20°C° 0 mm 5 mps 760 mmHg 74%
15:00 +21°C° 0 mm 4 mps 760 mmHg 73%
16:00 +20°C° 0 mm 4 mps 760 mmHg 75%
17:00 +20°C° 0 mm 4 mps 760 mmHg 77%
18:00 +20°C° 0 mm 4 mps 760 mmHg 78%
19:00 +19°C° 0 mm 3 mps 761 mmHg 83%
20:00 +18°C° 0 mm 2 mps 761 mmHg 87%
21:00 +18°C° 0 mm 1 mps 761 mmHg 91%
22:00 +16°C° 0 mm 1 mps 761 mmHg 92%
23:00 +16°C° 0 mm 1 mps 761 mmHg 93%

17 July, Friday

Time Temperature Precipitation Wind Pressure Humidity
00:00 +16°C° 0 mm 1 mps 761 mmHg 94%
01:00 +16°C° 0 mm 1 mps 761 mmHg 94%
02:00 +16°C° 0 mm 1 mps 761 mmHg 94%
03:00 +16°C° 0 mm 1 mps 761 mmHg 95%
04:00 +16°C° 0 mm 2 mps 761 mmHg 92%
05:00 +16°C° 0 mm 2 mps 761 mmHg 90%
06:00 +17°C° 0 mm 2 mps 761 mmHg 87%
07:00 +18°C° 0 mm 2 mps 761 mmHg 83%
08:00 +19°C° 0 mm 3 mps 761 mmHg 79%
09:00 +20°C° 0 mm 3 mps 761 mmHg 75%
10:00 +20°C° 0 mm 3 mps 761 mmHg 72%
11:00 +21°C° 0 mm 3 mps 761 mmHg 69%
12:00 +22°C° 0 mm 3 mps 761 mmHg 67%
13:00 +22°C° 0 mm 3 mps 761 mmHg 65%
14:00 +24°C° 0 mm 3 mps 760 mmHg 64%
15:00 +24°C° 0 mm 3 mps 760 mmHg 62%
16:00 +24°C° 0 mm 3 mps 760 mmHg 66%
17:00 +22°C° 0 mm 3 mps 760 mmHg 69%
18:00 +23°C° 0 mm 2 mps 760 mmHg 72%
19:00 +20°C° 0 mm 2 mps 760 mmHg 75%
20:00 +20°C° 0 mm 1 mps 760 mmHg 78%
21:00 +19°C° 0 mm 1 mps 760 mmHg 82%
22:00 +17°C° 0 mm 0 mps 760 mmHg 83%
23:00 +16°C° 0 mm 0 mps 760 mmHg 84%

18 July, Saturday

Time Temperature Precipitation Wind Pressure Humidity
00:00 +16°C° 0 mm 0 mps 760 mmHg 85%
01:00 +18°C° 0 mm 1 mps 759 mmHg 86%
02:00 +16°C° 0 mm 1 mps 759 mmHg 88%
03:00 +16°C° 0 mm 2 mps 759 mmHg 89%
04:00 +16°C° 0 mm 2 mps 758 mmHg 88%
05:00 +16°C° 0 mm 3 mps 758 mmHg 87%
06:00 +16°C° 0 mm 3 mps 758 mmHg 86%
07:00 +17°C° 0 mm 4 mps 757 mmHg 82%
08:00 +18°C° 0 mm 4 mps 757 mmHg 77%
09:00 +19°C° 0 mm 5 mps 757 mmHg 73%
10:00 +20°C° 0 mm 5 mps 757 mmHg 72%
11:00 +20°C° 0 mm 5 mps 757 mmHg 71%
12:00 +20°C° 0 mm 5 mps 757 mmHg 70%
13:00 +20°C° 0 mm 4 mps 757 mmHg 75%
14:00 +19°C° 0 mm 4 mps 757 mmHg 79%
15:00 +18°C° 0 mm 4 mps 757 mmHg 84%
16:00 +17°C° 0.1 mm 4 mps 757 mmHg 81%
17:00 +15°C° 0.1 mm 4 mps 757 mmHg 79%
18:00 +15°C° 0.1 mm 4 mps 757 mmHg 77%
19:00 +14°C° 0 mm 3 mps 758 mmHg 79%
20:00 +13°C° 0 mm 3 mps 758 mmHg 81%
21:00 +13°C° 0 mm 2 mps 759 mmHg 82%
22:00 +13°C° 0 mm 2 mps 759 mmHg 82%
23:00 +12°C° 0 mm 2 mps 759 mmHg 82%
Show more